Terminal Aerodrome Forecast
Issued by NWS

Home | Current Version | Previous Version | Text Only | Print | Product List | Glossary On
Versions: 1 2 3 4 5 6 7 8 9 10 11 12 13 14 15 16 17 18 19 20 21
000
FTUS46 KSEW 260206 AAA
TAFPAE
TAF AMD
KPAE 260206Z 2602/2624 17005KT P6SM FEW050 OVC200
     FM260600 15006KT P6SM FEW080 OVC150
     FM261200 13007KT P6SM BKN070 OVC120
     FM261800 15010KT P6SM -RA BKN045 OVC070=

USA.gov is the U.S. government's official web portal to all federal, state and local government web resources and services.